{"data":{"norad_id":45582,"intl_designator":"2020-025BD","name":"STARLINK-1337","alt_names":[],"object_type":"PAYLOAD","status":"ACTIVE","operator":null,"country":"US","launch_date":"2020-04-22","launch_site_code":"AFETR","launch_vehicle":null,"mission":null,"orbit_class":"UNKNOWN","rcs_meters":null,"size_class":null,"mass_kg":null,"dimensions":null,"purposes":["comms"],"wikipedia_slug":null,"has_3d_model":false,"image_url":null,"decayed_at":null,"tle_current":{"epoch":"2026-09-20T06:00:02.000160Z","epoch_age_seconds":43611,"freshness":"FRESH","line1":"1 45582U 20025BD  26263.25002315  .00277669  43367-4  53921-3 0  9997","line2":"2 45582  53.0325 170.8101 0004233 126.7424  39.9074 15.99829771  6039","mean_motion":15.99829771,"eccentricity":0.0004233,"inclination_deg":53.0325,"raan_deg":170.8101,"arg_perigee_deg":126.7424,"mean_anomaly_deg":39.9074,"bstar":0.00053921,"rev_number":603,"period_min":90.009576400113,"perigee_km":272.07437404367,"apogee_km":277.70682721036,"semimajor_km":6653.027600627,"source":"CELESTRAK","updated_at":"2026-09-20T09:00:38.448899Z"}}}